| time (UTC) | temp C | wind direction | speed KPH | gust KPH | rain 1hr cm | rain 24hr cm | rain mn cm | humidity % | barometer mb |
| 20260903055855 | 21 | 56 | 0.0 | 3.2 | 0.00 | 0.00 | 0.00 | 68 | 1014.0 |
| 20260903051707 | 24 | 257 | 0.0 | 0.0 | 0.00 | 0.00 | 0.00 | 67 | 992.2 |
| 20260903035913 | 18 | 177 | 0.0 | 4.8 | 0.00 | 0.00 | 0.00 | 66 | 1013.6 |
| 20260903031156 | 23 | 250 | 0.0 | 1.6 | 0.00 | 0.00 | 0.00 | 74 | 992.0 |
| 20260903025911 | 18 | 180 | 0.0 | 0.0 | 0.00 | 0.00 | 0.00 | 63 | 1013.7 |
| 20260903015856 | 18 | 180 | 0.0 | 3.2 | 0.00 | 0.00 | 0.00 | 61 | 1013.9 |
| 20260903011526 | 25 | 278 | 0.0 | 0.0 | 0.00 | 0.00 | 0.00 | 76 | 992.6 |
| 20260903001039 | 25 | 290 | 0.0 | 0.0 | 0.00 | 0.00 | 0.00 | 83 | 992.9 |
| 20260902235914 | 20 | 180 | 0.0 | 1.6 | 0.00 | 0.00 | 0.00 | 56 | 1014.1 |
| 20260902221251 | 26 | 283 | 0.0 | 0.0 | 0.00 | 0.00 | 0.00 | 79 | 993.3 |
| 20260902215920 | 22 | 180 | 0.0 | 4.8 | 0.00 | 0.00 | 0.00 | 49 | 1014.1 |
| 20260902211211 | 26 | 183 | 1.6 | 6.4 | 0.00 | 0.00 | 0.00 | 85 | 993.4 |
| 20260902205855 | 24 | 180 | 0.0 | 0.0 | 0.00 | 0.00 | 0.00 | 46 | 1014.0 |
| 20260902201053 | 27 | 326 | 0.0 | 0.0 | 0.00 | 0.00 | 0.00 | 73 | 993.6 |
| 20260902185916 | 27 | 180 | 1.6 | 4.8 | 0.00 | 0.00 | 0.00 | 43 | 1013.8 |
| 20260902181554 | 27 | 76 | 0.0 | 0.0 | 0.00 | 0.00 | 0.00 | 78 | 992.7 |
| 20260902171103 | 28 | 10 | 0.0 | 0.0 | 0.00 | 0.00 | 0.00 | 72 | 992.6 |
| 20260902165913 | 32 | 213 | 4.8 | 16.1 | 0.00 | 0.00 | 0.00 | 38 | 1013.2 |
| 20260902155906 | 33 | 202 | 6.4 | 17.7 | 0.00 | 0.00 | 0.00 | 38 | 1013.0 |
| 20260902151250 | 30 | 51 | 4.8 | 9.7 | 0.00 | 0.00 | 0.00 | 70 | 993.0 |
| 20260902145905 | 34 | 229 | 4.8 | 19.3 | 0.00 | 0.00 | 0.00 | 37 | 1013.3 |
| 20260902141140 | 30 | 93 | 3.2 | 14.5 | 0.00 | 0.00 | 0.00 | 67 | 993.2 |
| 20260902135905 | 35 | 242 | 9.7 | 22.5 | 0.00 | 0.00 | 0.00 | 36 | 1013.5 |
| 20260902121144 | 31 | 107 | 3.2 | 12.9 | 0.00 | 0.00 | 0.00 | 60 | 994.1 |
| 20260902115857 | 34 | 351 | 3.2 | 12.9 | 0.00 | 0.00 | 0.00 | 37 | 1014.9 |
| 20260902105858 | 32 | 17 | 3.2 | 8.0 | 0.00 | 0.00 | 0.00 | 44 | 1015.5 |
| 20260902101626 | 31 | 69 | 3.2 | 9.7 | 0.00 | 0.00 | 0.00 | 61 | 994.7 |
| 20260902091559 | 30 | 77 | 4.8 | 11.3 | 0.00 | 0.00 | 0.00 | 63 | 994.4 |
| 20260902085905 | 28 | 5 | 3.2 | 6.4 | 0.00 | 0.00 | 0.00 | 59 | 1015.8 |
| 20260902081158 | 30 | 44 | 3.2 | 11.3 | 0.00 | 0.00 | 0.00 | 66 | 994.1 |
| 20260902065912 | 21 | 27 | 0.0 | 4.8 | 0.00 | 0.00 | 0.00 | 73 | 1015.4 |